Durango, Mexico

2:22 AM CDT on September 21, 2017 (GMT -0500)
Durango

Weather History for MMDO - October, 2012

Change the Weather History Date:

Sunday, October 14, 2012

  Actual Average Record
Temperature  
Mean Temperature 70 °F -  
Max Temperature 81 °F 75 °F 87 °F (2016)
Min Temperature 59 °F 43 °F 42 °F (1997)
Cooling Degree Days 5    
Growing Degree Days 20 (Base 50)    
Moisture  
Dew Point 56 °F    
Average Humidity 65    
Maximum Humidity 94    
Minimum Humidity 38    
Precipitation  
Precipitation 0.00 in - - ()
Sea Level Pressure  
Sea Level Pressure 30.03 in    
Wind  
Wind Speed 3 mph ()    
Max Wind Speed 14 mph    
Max Gust Speed -    
Visibility 11.5 miles    
Events Rain    
Averages and records for this station are not official NWS values.
T = Trace of Precipitation, MM = Missing Value Source: Averaged Metar Reports

Daily Weather History Graph

Daily Weather History Graph

Search for Another Location

Airport or City:

Trip Planner

Search our weather history database for the weather conditions in past years. The results will help you decide how hot, cold, wet, or windy it might be!

Date:

Astronomy

Oct. 14, 2012 Rise Set
Actual Time 7:55 AM CDT 7:32 PM CDT
Civil Twilight 7:32 AM CDT 7:54 PM CDT
Nautical Twilight 7:06 AM CDT 8:21 PM CDT
Astronomical Twilight 6:39 AM CDT 8:47 PM CDT
Moon 6:59 AM CDT (10/14) 6:55 PM CDT (10/14)
Length of Visible Light 12h 22m
Length of Day
11h 36m
Waning Crescent, 1% of the Moon is Illuminated
Oct 14
Waning Crescent
Oct 15
New
Oct 21
First Quarter
Oct 29
Full
Nov 6
Last Quarter

Hourly Weather History & Observations

Time (CDT) Temp. Dew Point Humidity Pressure Visibility Wind Dir Wind Speed Gust Speed Precip Events Conditions
12:55 AM 68 °F 53 °F 48% 29.79 in 6 mi NE 4.5 mph - -   Overcast
3:55 AM 64 °F 53 °F 59% 29.83 in 6 mi SSE 2.2 mph - -   Overcast
6:04 AM 60.8 °F 53.6 °F 77% 30.25 in 10.0 mi ESE 3.5 mph - N/A   Mostly Cloudy
6:53 AM 59.0 °F 53.6 °F 82% 29.83 in 10.0 mi East 3.5 mph - N/A   Scattered Clouds
6:55 AM 61 °F 55 °F 75% 29.86 in 6 mi SSE 2.2 mph - -   Mostly Cloudy
7:50 AM 59.0 °F 53.6 °F 82% 30.24 in 12.0 mi Calm Calm - N/A   Mostly Cloudy
8:48 AM 59.0 °F 57.2 °F 94% 30.26 in 12.0 mi Calm Calm - N/A   Mostly Cloudy
9:48 AM 62.6 °F 57.2 °F 82% 29.90 in 12.0 mi Calm Calm - N/A   Overcast
9:50 AM 62 °F 55 °F 72% 29.94 in 25 mi Calm Calm - -   Overcast
10:46 AM 68.0 °F 57.2 °F 68% 30.30 in 12.0 mi Calm Calm - N/A   Overcast
11:45 AM 73.4 °F 57.2 °F 57% 30.30 in 12.0 mi North 4.6 mph - N/A   Mostly Cloudy
12:44 PM 75.2 °F 57.2 °F 53% 29.87 in 14.0 mi SSW 2.3 mph - N/A   Overcast
12:59 PM 74 °F 54 °F 40% 29.94 in 19 mi Calm Calm - -   Overcast
1:48 PM 77.0 °F 55.4 °F 47% 30.26 in 14.0 mi Calm Calm - N/A   Overcast
2:47 PM 69.8 °F 59.0 °F 68% 30.22 in 14.0 mi NNE 9.2 mph - N/A   Mostly Cloudy
3:47 PM 77.0 °F 55.4 °F 47% 29.79 in 14.0 mi Calm Calm - N/A   Overcast
3:54 PM 77 °F 56 °F 38% 29.81 in 19 mi Calm Calm - -   Overcast
4:15 PM 71.6 °F 60.8 °F 69% 30.17 in 12.0 mi NE 13.8 mph - N/A Rain Light Rain
4:45 PM 71.6 °F 55.4 °F 57% 30.17 in 12.0 mi NNE 10.4 mph - N/A   Overcast
5:49 PM 75.2 °F 57.2 °F 53% 30.17 in 12.0 mi North 8.1 mph - N/A   Overcast
6:47 PM 68.0 °F 53.6 °F 60% 29.82 in 8.0 mi SSE 13.8 mph - N/A   Overcast
6:59 PM 71 °F 56 °F 49% 29.77 in 19 mi SSE 6.7 mph - -   Overcast
7:49 PM 62.6 °F 57.2 °F 82% 30.21 in 8.0 mi ESE 11.5 mph - N/A   Overcast
9:55 PM 63 °F 57 °F 76% 29.82 in 6 mi NE 4.5 mph - -   Mostly Cloudy
10:46 PM 59.0 °F 57.2 °F 94% 30.28 in 8.0 mi ESE 11.5 mph - N/A   Overcast